HUN2YG EGPH-LHBP

Flight info

Callsign HUN2YG
Flight time 2h 33m
Altitude 37000
Route TLA Y96 AGPED N110 ERKIT L602 OTR L90 DOLAS NAVPI TIVUN ESAMA OSBIT KOMIB TONSU Z650 VEMUT BUDEX MAREG ANEXA
Aircraft B738/M-SDE2E3FGHIJ2J5RWXY/L

Departure

Time 2026-05-05 06:20
Airport Edinburgh Airport (EGPH)

Arrival

Time 2026-05-05 08:54
Airport Budapest Liszt Ferenc International Airport (LHBP)
Time Latitude Longitude Altitude Speed Heading
2026-05-05 06:03 55.94923 -3.36432 105 ft 0 kts 148°
2026-05-05 06:13 55.94922 -3.36432 105 ft 0 kts 148°
2026-05-05 06:13 55.94929 -3.36440 105 ft 2 kts 148°
2026-05-05 06:14 55.94942 -3.36454 105 ft 2 kts 148°
2026-05-05 06:14 55.94955 -3.36468 105 ft 2 kts 148°
2026-05-05 06:14 55.94963 -3.36478 105 ft 1 kts 148°
2026-05-05 06:14 55.94973 -3.36496 105 ft 2 kts 106°
2026-05-05 06:15 55.94973 -3.36522 105 ft 1 kts 69°
2026-05-05 06:15 55.94970 -3.36532 105 ft 1 kts 54°
2026-05-05 06:15 55.94968 -3.36538 105 ft 0 kts 58°
2026-05-05 06:17 55.94974 -3.36520 105 ft 6 kts 59°
2026-05-05 06:17 55.95015 -3.36416 105 ft 12 kts 34°
2026-05-05 06:17 55.95106 -3.36350 105 ft 17 kts 50°
2026-05-05 06:17 55.95181 -3.36143 105 ft 22 kts 59°
2026-05-05 06:18 55.95261 -3.35907 105 ft 22 kts 59°
2026-05-05 06:18 55.95341 -3.35668 105 ft 22 kts 59°
2026-05-05 06:18 55.95413 -3.35460 105 ft 12 kts 52°
2026-05-05 06:18 55.95485 -3.35435 105 ft 11 kts 337°
2026-05-05 06:19 55.95551 -3.35507 104 ft 12 kts 306°
2026-05-05 06:19 55.95509 -3.35744 104 ft 33 kts 239°
2026-05-05 06:19 55.95254 -3.36500 105 ft 108 kts 239°
2026-05-05 06:19 55.94748 -3.37995 114 ft 170 kts 240°
2026-05-05 06:20 55.94087 -3.39891 606 ft 189 kts 239°
2026-05-05 06:20 55.93415 -3.41838 1590 ft 185 kts 242°
2026-05-05 06:20 55.92761 -3.43820 2167 ft 195 kts 243°
2026-05-05 06:20 55.92033 -3.45992 2589 ft 214 kts 242°
2026-05-05 06:21 55.91234 -3.48322 3087 ft 229 kts 241°
2026-05-05 06:21 55.90374 -3.50822 3582 ft 245 kts 242°
2026-05-05 06:21 55.89785 -3.52588 4013 ft 252 kts 243°
2026-05-05 06:21 55.88581 -3.56277 4862 ft 266 kts 243°
2026-05-05 06:22 55.87539 -3.58961 5556 ft 275 kts 226°
2026-05-05 06:22 55.85905 -3.60775 5939 ft 283 kts 199°
2026-05-05 06:22 55.83966 -3.61075 5974 ft 283 kts 172°
2026-05-05 06:22 55.82130 -3.59940 5972 ft 281 kts 149°
2026-05-05 06:23 55.80595 -3.57858 5996 ft 279 kts 133°
2026-05-05 06:23 55.79458 -3.55077 5996 ft 277 kts 118°
2026-05-05 06:23 55.78509 -3.52107 5981 ft 278 kts 125°
2026-05-05 06:23 55.77085 -3.49851 5991 ft 280 kts 152°
2026-05-05 06:24 55.75277 -3.48596 5989 ft 282 kts 164°
2026-05-05 06:24 55.73371 -3.47714 5977 ft 281 kts 166°
2026-05-05 06:24 55.71466 -3.46845 5977 ft 282 kts 165°
2026-05-05 06:24 55.69585 -3.45912 5975 ft 281 kts 164°
2026-05-05 06:25 55.67728 -3.44936 5975 ft 281 kts 163°
2026-05-05 06:25 55.65870 -3.43931 5971 ft 281 kts 163°
2026-05-05 06:25 55.64006 -3.42914 5971 ft 281 kts 163°
2026-05-05 06:25 55.62137 -3.41895 5971 ft 281 kts 163°
2026-05-05 06:26 55.60281 -3.40886 5971 ft 281 kts 163°
2026-05-05 06:26 55.58397 -3.39865 5968 ft 281 kts 163°
2026-05-05 06:26 55.56536 -3.38858 5967 ft 281 kts 163°
2026-05-05 06:26 55.54677 -3.37854 5968 ft 281 kts 163°
2026-05-05 06:27 55.52828 -3.36815 5966 ft 280 kts 160°
2026-05-05 06:27 55.49868 -3.32559 6049 ft 288 kts 114°
2026-05-05 06:27 55.49299 -3.29238 6978 ft 282 kts 99°
2026-05-05 06:28 55.48936 -3.25859 7700 ft 287 kts 99°
2026-05-05 06:28 55.48564 -3.22397 8458 ft 291 kts 99°
2026-05-05 06:28 55.48312 -3.20061 8915 ft 295 kts 99°
2026-05-05 06:28 55.47801 -3.15322 9844 ft 301 kts 99°
2026-05-05 06:29 55.47407 -3.11655 10436 ft 310 kts 99°
2026-05-05 06:29 55.47002 -3.07878 10810 ft 325 kts 99°
2026-05-05 06:29 55.46572 -3.03871 11185 ft 341 kts 99°
2026-05-05 06:29 55.46043 -2.99725 11548 ft 356 kts 106°
2026-05-05 06:30 55.45103 -2.95622 11930 ft 371 kts 116°
2026-05-05 06:30 55.43869 -2.91603 12562 ft 376 kts 120°
2026-05-05 06:30 55.42526 -2.87616 13162 ft 382 kts 121°
2026-05-05 06:30 55.41159 -2.83616 13860 ft 385 kts 121°
2026-05-05 06:31 55.39790 -2.79554 14504 ft 389 kts 120°
2026-05-05 06:31 55.38431 -2.75452 15111 ft 394 kts 120°
2026-05-05 06:31 55.37068 -2.71277 15730 ft 398 kts 120°
2026-05-05 06:31 55.35701 -2.67055 16340 ft 402 kts 120°
2026-05-05 06:32 55.34338 -2.62824 16948 ft 405 kts 120°
2026-05-05 06:32 55.32936 -2.58467 17513 ft 409 kts 120°
2026-05-05 06:32 55.31546 -2.54152 18096 ft 412 kts 120°
2026-05-05 06:32 55.30140 -2.49794 18677 ft 416 kts 120°
2026-05-05 06:33 55.28700 -2.45343 19237 ft 419 kts 120°
2026-05-05 06:33 55.27262 -2.40909 19798 ft 423 kts 120°
2026-05-05 06:33 55.25820 -2.36472 20337 ft 426 kts 120°
2026-05-05 06:33 55.24347 -2.31953 20863 ft 430 kts 121°
2026-05-05 06:34 55.22867 -2.27419 21382 ft 433 kts 121°
2026-05-05 06:34 55.21365 -2.22827 21899 ft 436 kts 121°
2026-05-05 06:34 55.19856 -2.18223 22371 ft 439 kts 121°
2026-05-05 06:34 55.18351 -2.13639 22854 ft 442 kts 121°
2026-05-05 06:35 55.16847 -2.09064 23337 ft 445 kts 121°
2026-05-05 06:35 55.15268 -2.04281 23788 ft 448 kts 122°
2026-05-05 06:35 55.13623 -1.99726 24226 ft 450 kts 127°
2026-05-05 06:35 55.11666 -1.95496 24665 ft 450 kts 136°
2026-05-05 06:36 55.09344 -1.91866 25111 ft 449 kts 145°
2026-05-05 06:36 55.06774 -1.88806 25569 ft 449 kts 151°
2026-05-05 06:36 55.04107 -1.86082 25989 ft 451 kts 154°
2026-05-05 06:36 55.01333 -1.83449 26403 ft 453 kts 155°
2026-05-05 06:37 54.98554 -1.80868 26843 ft 455 kts 155°
2026-05-05 06:37 54.95773 -1.78285 27218 ft 458 kts 154°
2026-05-05 06:37 54.92978 -1.75668 27648 ft 460 kts 154°
2026-05-05 06:37 54.90162 -1.73007 28040 ft 463 kts 154°
2026-05-05 06:38 54.87337 -1.70314 28443 ft 465 kts 154°
2026-05-05 06:38 54.84516 -1.67607 28811 ft 468 kts 153°
2026-05-05 06:38 54.81627 -1.64820 29160 ft 471 kts 153°
2026-05-05 06:38 54.78777 -1.62064 29577 ft 472 kts 153°
2026-05-05 06:39 54.75956 -1.59327 30191 ft 467 kts 153°
2026-05-05 06:39 54.73114 -1.56568 30734 ft 465 kts 153°
2026-05-05 06:39 54.70294 -1.53833 31150 ft 465 kts 153°
2026-05-05 06:39 54.67491 -1.51117 31612 ft 463 kts 153°
2026-05-05 06:40 54.64709 -1.48426 32014 ft 462 kts 153°
2026-05-05 06:40 54.61906 -1.45719 32387 ft 462 kts 153°
2026-05-05 06:40 54.59110 -1.43022 32724 ft 462 kts 152°
2026-05-05 06:40 54.56310 -1.40327 33131 ft 461 kts 152°
2026-05-05 06:41 54.53519 -1.37645 33476 ft 460 kts 152°
2026-05-05 06:41 54.50729 -1.34968 33801 ft 460 kts 153°
2026-05-05 06:41 54.47952 -1.32309 34145 ft 459 kts 153°
2026-05-05 06:41 54.45177 -1.29655 34496 ft 458 kts 153°
2026-05-05 06:42 54.42422 -1.27023 34832 ft 456 kts 153°
2026-05-05 06:42 54.39656 -1.24384 35107 ft 455 kts 153°
2026-05-05 06:42 54.36910 -1.21769 35302 ft 456 kts 153°
2026-05-05 06:42 54.34142 -1.19138 35516 ft 456 kts 153°
2026-05-05 06:43 54.31362 -1.16495 35723 ft 455 kts 152°
2026-05-05 06:43 54.28664 -1.13754 35923 ft 456 kts 149°
2026-05-05 06:43 54.26014 -1.10764 36132 ft 456 kts 147°
2026-05-05 06:43 54.23445 -1.07696 36357 ft 455 kts 146°
2026-05-05 06:44 54.20874 -1.04558 36556 ft 454 kts 146°
2026-05-05 06:44 54.18339 -1.01450 36745 ft 454 kts 146°
2026-05-05 06:44 54.15772 -0.98318 36958 ft 453 kts 146°
2026-05-05 06:45 54.10622 -0.92101 36981 ft 454 kts 146°
2026-05-05 06:45 54.05492 -0.85856 36977 ft 452 kts 142°
2026-05-05 06:46 54.00957 -0.78486 36978 ft 454 kts 132°
2026-05-05 06:46 53.96971 -0.70157 36985 ft 455 kts 128°
2026-05-05 06:47 53.93177 -0.61660 36981 ft 454 kts 127°
2026-05-05 06:47 53.89394 -0.53168 36978 ft 453 kts 127°
2026-05-05 06:48 53.85563 -0.44669 36984 ft 453 kts 128°
2026-05-05 06:48 53.81718 -0.36228 36986 ft 453 kts 128°
2026-05-05 06:49 53.77879 -0.27860 36985 ft 454 kts 129°
2026-05-05 06:49 53.74020 -0.19489 36982 ft 453 kts 129°
2026-05-05 06:50 53.69962 -0.11367 36978 ft 453 kts 136°
2026-05-05 06:50 53.65142 -0.04637 36978 ft 452 kts 145°
2026-05-05 06:51 53.59966 0.01284 36982 ft 450 kts 147°
2026-05-05 06:51 53.54733 0.06967 36970 ft 449 kts 147°
2026-05-05 06:52 53.49793 0.13376 36967 ft 451 kts 137°
2026-05-05 06:52 53.45335 0.20761 36969 ft 450 kts 134°
2026-05-05 06:53 53.41021 0.28280 36970 ft 448 kts 134°
2026-05-05 06:53 53.36704 0.35729 36969 ft 450 kts 134°
2026-05-05 06:54 53.32317 0.43167 36965 ft 446 kts 135°
2026-05-05 06:54 53.27974 0.50448 36969 ft 445 kts 135°
2026-05-05 06:55 53.23608 0.57716 36967 ft 445 kts 135°
2026-05-05 06:55 53.19243 0.64951 36962 ft 444 kts 135°
2026-05-05 06:56 53.14860 0.72188 36967 ft 444 kts 136°
2026-05-05 06:56 53.10492 0.79381 36971 ft 445 kts 136°
2026-05-05 06:57 53.06081 0.86623 36960 ft 445 kts 136°
2026-05-05 06:57 53.01691 0.93814 36970 ft 445 kts 135°
2026-05-05 06:58 52.97784 1.01763 36968 ft 445 kts 121°
2026-05-05 06:58 52.95156 1.11051 36967 ft 447 kts 112°
2026-05-05 06:59 52.92999 1.20629 36972 ft 447 kts 110°
2026-05-05 06:59 52.90900 1.30311 36971 ft 448 kts 110°
2026-05-05 07:00 52.88762 1.39975 36968 ft 447 kts 111°
2026-05-05 07:00 52.86594 1.49566 36978 ft 449 kts 111°
2026-05-05 07:01 52.84387 1.59192 36974 ft 449 kts 111°
2026-05-05 07:01 52.82165 1.68803 36968 ft 450 kts 112°
2026-05-05 07:02 52.79925 1.78442 36971 ft 451 kts 112°
2026-05-05 07:02 52.77688 1.88019 36965 ft 451 kts 112°
2026-05-05 07:03 52.75416 1.97705 36967 ft 452 kts 112°
2026-05-05 07:03 52.73152 2.07310 36968 ft 452 kts 112°
2026-05-05 07:04 52.70883 2.16894 36967 ft 453 kts 112°
2026-05-05 07:04 52.68574 2.26602 36966 ft 453 kts 112°
2026-05-05 07:05 52.66275 2.36229 36966 ft 453 kts 112°
2026-05-05 07:05 52.63985 2.45777 36972 ft 453 kts 112°
2026-05-05 07:06 52.61663 2.55409 36964 ft 453 kts 112°
2026-05-05 07:06 52.59338 2.65013 36963 ft 453 kts 114°
2026-05-05 07:07 52.57012 2.74581 36960 ft 453 kts 114°
2026-05-05 07:07 52.54669 2.84174 36960 ft 454 kts 114°
2026-05-05 07:08 52.52146 2.93624 36958 ft 454 kts 117°
2026-05-05 07:08 52.49445 3.02968 36958 ft 454 kts 117°
2026-05-05 07:09 52.46725 3.12274 36957 ft 453 kts 117°
2026-05-05 07:09 52.44025 3.21551 36957 ft 455 kts 117°
2026-05-05 07:10 52.41318 3.30882 36955 ft 454 kts 117°
2026-05-05 07:10 52.38619 3.40184 36960 ft 455 kts 117°
2026-05-05 07:11 52.36344 3.48008 36961 ft 455 kts 117°
2026-05-05 07:11 52.33194 3.58817 36951 ft 455 kts 117°
2026-05-05 07:12 52.30470 3.68120 36946 ft 456 kts 118°
2026-05-05 07:12 52.27730 3.77441 36943 ft 456 kts 118°
2026-05-05 07:13 52.24992 3.86723 36941 ft 457 kts 118°
2026-05-05 07:13 52.22230 3.96047 36938 ft 457 kts 118°
2026-05-05 07:14 52.19480 4.05293 36942 ft 458 kts 118°
2026-05-05 07:14 52.16698 4.14611 36938 ft 458 kts 118°
2026-05-05 07:15 52.13920 4.23883 36937 ft 457 kts 119°
2026-05-05 07:15 52.11136 4.33142 36939 ft 457 kts 119°
2026-05-05 07:16 52.08347 4.42373 36934 ft 457 kts 119°
2026-05-05 07:16 52.05539 4.51638 36935 ft 457 kts 119°
2026-05-05 07:17 52.02722 4.60888 36937 ft 459 kts 119°
2026-05-05 07:17 51.99881 4.70185 36924 ft 459 kts 120°
2026-05-05 07:18 51.97057 4.79392 36917 ft 459 kts 120°
2026-05-05 07:18 51.94221 4.88606 36916 ft 458 kts 120°
2026-05-05 07:19 51.91370 4.97837 36907 ft 459 kts 120°
2026-05-05 07:19 51.88498 5.07092 36906 ft 459 kts 120°
2026-05-05 07:20 51.85635 5.16284 36905 ft 460 kts 120°
2026-05-05 07:20 51.82766 5.25464 36908 ft 459 kts 120°
2026-05-05 07:21 51.79892 5.34625 36907 ft 459 kts 120°
2026-05-05 07:21 51.77019 5.43746 36913 ft 459 kts 121°
2026-05-05 07:22 51.74129 5.52885 36914 ft 460 kts 120°
2026-05-05 07:22 51.71215 5.62068 36913 ft 460 kts 121°
2026-05-05 07:23 51.68319 5.71165 36911 ft 458 kts 121°
2026-05-05 07:23 51.65408 5.80270 36911 ft 460 kts 121°
2026-05-05 07:24 51.62470 5.89425 36910 ft 458 kts 121°
2026-05-05 07:24 51.59547 5.98498 36907 ft 458 kts 122°
2026-05-05 07:25 51.56617 6.07565 36903 ft 459 kts 122°
2026-05-05 07:25 51.53684 6.16603 36901 ft 459 kts 122°
2026-05-05 07:26 51.50720 6.25706 36901 ft 459 kts 122°
2026-05-05 07:26 51.47768 6.34731 36900 ft 459 kts 121°
2026-05-05 07:27 51.44809 6.43752 36902 ft 460 kts 122°
2026-05-05 07:27 51.41848 6.52748 36899 ft 459 kts 122°
2026-05-05 07:28 51.38856 6.61805 36902 ft 460 kts 122°
2026-05-05 07:28 51.35878 6.70784 36898 ft 458 kts 122°
2026-05-05 07:29 51.32896 6.79744 36899 ft 459 kts 122°
2026-05-05 07:29 51.29899 6.88707 36892 ft 458 kts 123°
2026-05-05 07:30 51.26897 6.97663 36894 ft 459 kts 123°
2026-05-05 07:30 51.22385 7.11065 36871 ft 459 kts 123°
2026-05-05 07:31 51.19381 7.19951 36872 ft 459 kts 123°
2026-05-05 07:31 51.16342 7.28899 36868 ft 459 kts 123°
2026-05-05 07:32 51.13315 7.37781 36872 ft 461 kts 123°
2026-05-05 07:32 51.10263 7.46703 36863 ft 458 kts 123°
2026-05-05 07:33 51.07221 7.55573 36867 ft 459 kts 123°
2026-05-05 07:33 51.04169 7.64436 36863 ft 458 kts 123°
2026-05-05 07:34 51.01128 7.73239 36867 ft 458 kts 124°
2026-05-05 07:34 50.98057 7.82098 36868 ft 458 kts 124°
2026-05-05 07:35 50.94993 7.90883 36868 ft 458 kts 125°
2026-05-05 07:35 50.91562 7.99230 36877 ft 451 kts 134°
2026-05-05 07:36 50.87312 8.06461 36882 ft 446 kts 141°
2026-05-05 07:36 50.82828 8.13189 36887 ft 445 kts 142°
2026-05-05 07:37 50.78346 8.19820 36887 ft 444 kts 142°
2026-05-05 07:37 50.73847 8.26523 36879 ft 444 kts 142°
2026-05-05 07:38 50.69375 8.33234 36884 ft 444 kts 141°
2026-05-05 07:38 50.64940 8.39907 36883 ft 444 kts 141°
2026-05-05 07:39 50.60493 8.46593 36880 ft 445 kts 141°
2026-05-05 07:39 50.56017 8.53309 36864 ft 444 kts 141°
2026-05-05 07:40 50.51577 8.59960 36874 ft 443 kts 141°
2026-05-05 07:40 50.47132 8.66599 36867 ft 441 kts 142°
2026-05-05 07:41 50.42706 8.73188 36854 ft 440 kts 142°
2026-05-05 07:41 50.38282 8.79760 36860 ft 441 kts 142°
2026-05-05 07:42 50.34187 8.86946 36853 ft 449 kts 130°
2026-05-05 07:42 50.31124 8.95546 36855 ft 456 kts 121°
2026-05-05 07:43 50.28499 9.04586 36854 ft 459 kts 118°
2026-05-05 07:43 50.25951 9.13677 36854 ft 458 kts 118°
2026-05-05 07:44 50.23373 9.22744 36855 ft 458 kts 118°
2026-05-05 07:44 50.20771 9.31747 36854 ft 456 kts 119°
2026-05-05 07:45 50.18129 9.40768 36857 ft 458 kts 119°
2026-05-05 07:45 50.15494 9.49709 36856 ft 456 kts 119°
2026-05-05 07:46 50.12838 9.58670 36851 ft 455 kts 119°
2026-05-05 07:46 50.10194 9.67565 36856 ft 455 kts 120°
2026-05-05 07:47 50.07770 9.76710 36858 ft 461 kts 111°
2026-05-05 07:47 50.06885 9.86634 36858 ft 470 kts 96°
2026-05-05 07:48 50.06902 9.96781 36857 ft 470 kts 92°
2026-05-05 07:48 50.07081 10.06902 36844 ft 471 kts 91°
2026-05-05 07:49 50.07231 10.17090 36834 ft 472 kts 92°
2026-05-05 07:49 50.07102 10.27183 36830 ft 467 kts 98°
2026-05-05 07:50 50.06256 10.37139 36834 ft 468 kts 103°
2026-05-05 07:50 50.05165 10.47085 36840 ft 464 kts 103°
2026-05-05 07:51 50.04068 10.56906 36842 ft 467 kts 103°
2026-05-05 07:51 50.02990 10.66789 36840 ft 463 kts 103°
2026-05-05 07:52 50.01922 10.76703 36841 ft 466 kts 103°
2026-05-05 07:52 50.00861 10.86613 36840 ft 466 kts 103°
2026-05-05 07:53 49.99803 10.96478 36841 ft 466 kts 103°
2026-05-05 07:53 49.98732 11.06408 36835 ft 465 kts 103°
2026-05-05 07:54 49.97656 11.16287 36825 ft 466 kts 103°
2026-05-05 07:54 49.96350 11.26047 36837 ft 462 kts 109°
2026-05-05 07:55 49.94462 11.35470 36844 ft 460 kts 112°
2026-05-05 07:55 49.92416 11.44857 36842 ft 462 kts 111°
2026-05-05 07:56 49.90570 11.54311 36844 ft 461 kts 109°
2026-05-05 07:56 49.88804 11.63890 36848 ft 462 kts 108°
2026-05-05 07:57 49.87404 11.73574 36854 ft 465 kts 102°
2026-05-05 07:57 49.86528 11.83459 36856 ft 466 kts 100°
2026-05-05 07:58 49.85749 11.93419 36856 ft 465 kts 99°
2026-05-05 07:58 49.84939 12.03281 36855 ft 465 kts 100°
2026-05-05 07:59 49.84084 12.13140 36853 ft 465 kts 100°
2026-05-05 07:59 49.83197 12.23002 36850 ft 465 kts 100°
2026-05-05 08:00 49.82290 12.32912 36850 ft 465 kts 100°
2026-05-05 08:00 49.81226 12.42715 36854 ft 463 kts 106°
2026-05-05 08:01 49.80236 12.47375 36855 ft 459 kts 117°
2026-05-05 08:01 49.78742 12.51745 36862 ft 457 kts 124°
2026-05-05 08:01 49.75263 12.59838 36856 ft 455 kts 128°
2026-05-05 08:02 49.71590 12.67810 36852 ft 454 kts 129°
2026-05-05 08:02 49.67943 12.75722 36846 ft 455 kts 129°
2026-05-05 08:03 49.64324 12.83640 36847 ft 455 kts 128°
2026-05-05 08:03 49.60698 12.91617 36845 ft 455 kts 128°
2026-05-05 08:04 49.57090 12.99569 36842 ft 455 kts 128°
2026-05-05 08:04 49.53471 13.07538 36846 ft 457 kts 128°
2026-05-05 08:05 49.49845 13.15504 36847 ft 455 kts 128°
2026-05-05 08:05 49.46216 13.23457 36851 ft 456 kts 128°
2026-05-05 08:06 49.42589 13.31382 36849 ft 455 kts 128°
2026-05-05 08:06 49.38959 13.39287 36848 ft 454 kts 128°
2026-05-05 08:07 49.35332 13.47161 36849 ft 455 kts 128°
2026-05-05 08:07 49.31678 13.55072 36846 ft 455 kts 128°
2026-05-05 08:08 49.28040 13.62927 36841 ft 455 kts 128°
2026-05-05 08:08 49.24388 13.70786 36837 ft 455 kts 128°
2026-05-05 08:09 49.20723 13.78654 36838 ft 454 kts 128°
2026-05-05 08:09 49.17068 13.86475 36843 ft 453 kts 129°
2026-05-05 08:10 49.13409 13.94280 36848 ft 453 kts 128°
2026-05-05 08:10 49.09776 14.02007 36856 ft 453 kts 128°
2026-05-05 08:11 49.06103 14.09795 36857 ft 454 kts 128°
2026-05-05 08:11 49.02405 14.17616 36854 ft 454 kts 128°
2026-05-05 08:12 48.98740 14.25344 36846 ft 454 kts 128°
2026-05-05 08:12 48.95202 14.33254 36837 ft 455 kts 122°
2026-05-05 08:13 48.92389 14.41841 36837 ft 457 kts 116°
2026-05-05 08:13 48.89980 14.50592 36836 ft 457 kts 114°
2026-05-05 08:14 48.87568 14.59689 36835 ft 457 kts 113°
2026-05-05 08:14 48.85183 14.68565 36835 ft 457 kts 114°
2026-05-05 08:15 48.82760 14.77429 36833 ft 457 kts 115°
2026-05-05 08:15 48.80320 14.86257 36836 ft 457 kts 115°
2026-05-05 08:16 48.77852 14.95117 36841 ft 456 kts 115°
2026-05-05 08:16 48.75398 15.03886 36841 ft 456 kts 115°
2026-05-05 08:17 48.72916 15.12718 36840 ft 455 kts 115°
2026-05-05 08:17 48.70447 15.21474 36838 ft 455 kts 115°
2026-05-05 08:18 48.67966 15.30238 36844 ft 455 kts 114°
2026-05-05 08:18 48.65477 15.39001 36845 ft 456 kts 115°
2026-05-05 08:19 48.62978 15.47763 36845 ft 455 kts 115°
2026-05-05 08:19 48.60482 15.56486 36841 ft 455 kts 115°
2026-05-05 08:20 48.57986 15.65177 36835 ft 455 kts 115°
2026-05-05 08:20 48.55448 15.73982 36839 ft 455 kts 115°
2026-05-05 08:21 48.52928 15.82690 36843 ft 455 kts 115°
2026-05-05 08:21 48.50402 15.91390 36840 ft 455 kts 115°
2026-05-05 08:22 48.47866 16.00097 36839 ft 454 kts 115°
2026-05-05 08:22 48.45334 16.08756 36839 ft 455 kts 115°
2026-05-05 08:23 48.42778 16.17466 36849 ft 454 kts 115°
2026-05-05 08:23 48.40229 16.26122 36858 ft 455 kts 115°
2026-05-05 08:24 48.37677 16.34755 36861 ft 454 kts 115°
2026-05-05 08:24 48.35116 16.43390 36864 ft 455 kts 115°
2026-05-05 08:25 48.32545 16.52028 36859 ft 455 kts 115°
2026-05-05 08:25 48.29961 16.60677 36862 ft 454 kts 115°
2026-05-05 08:26 48.27370 16.69320 36863 ft 454 kts 116°
2026-05-05 08:26 48.24781 16.77925 36868 ft 454 kts 116°
2026-05-05 08:27 48.22189 16.86512 36874 ft 455 kts 116°
2026-05-05 08:27 48.19587 16.95123 36876 ft 454 kts 115°
2026-05-05 08:28 48.17350 17.03900 36879 ft 453 kts 109°
2026-05-05 08:28 48.15447 17.12873 36887 ft 454 kts 108°
2026-05-05 08:29 48.13598 17.21843 36889 ft 455 kts 108°
2026-05-05 08:30 48.10755 17.35295 36892 ft 454 kts 108°
2026-05-05 08:30 48.08814 17.44290 36890 ft 455 kts 108°
2026-05-05 08:30 48.07836 17.48779 36687 ft 453 kts 109°
2026-05-05 08:31 48.06868 17.53208 36319 ft 448 kts 109°
2026-05-05 08:31 48.05905 17.57597 35820 ft 446 kts 109°
2026-05-05 08:31 48.04953 17.61926 35336 ft 444 kts 109°
2026-05-05 08:31 48.03986 17.66311 34713 ft 446 kts 109°
2026-05-05 08:32 48.03015 17.70703 33969 ft 448 kts 109°
2026-05-05 08:32 48.02049 17.75061 33235 ft 449 kts 110°
2026-05-05 08:32 48.01063 17.79498 32491 ft 450 kts 110°
2026-05-05 08:32 48.00086 17.83888 31977 ft 446 kts 109°
2026-05-05 08:33 47.99115 17.88248 31419 ft 443 kts 109°
2026-05-05 08:33 47.98155 17.92552 30858 ft 440 kts 109°
2026-05-05 08:33 47.97190 17.96868 30272 ft 437 kts 109°
2026-05-05 08:33 47.96236 18.01127 29696 ft 434 kts 109°
2026-05-05 08:34 47.95283 18.05368 29128 ft 431 kts 109°
2026-05-05 08:34 47.94338 18.09570 28561 ft 428 kts 109°
2026-05-05 08:34 47.93387 18.13790 27995 ft 425 kts 109°
2026-05-05 08:34 47.92461 18.17889 27440 ft 422 kts 110°
2026-05-05 08:35 47.91531 18.22000 26881 ft 419 kts 109°
2026-05-05 08:35 47.90608 18.26074 26329 ft 416 kts 110°
2026-05-05 08:35 47.89686 18.30128 25775 ft 412 kts 110°
2026-05-05 08:35 47.88759 18.34163 25222 ft 409 kts 111°
2026-05-05 08:36 47.87685 18.38028 24661 ft 405 kts 117°
2026-05-05 08:36 47.86223 18.41516 24117 ft 400 kts 129°
2026-05-05 08:36 47.84307 18.44476 23579 ft 394 kts 140°
2026-05-05 08:36 47.82114 18.46878 23033 ft 390 kts 148°
2026-05-05 08:37 47.79777 18.48843 22494 ft 386 kts 155°
2026-05-05 08:37 47.77281 18.50222 21930 ft 379 kts 166°
2026-05-05 08:37 47.74787 18.51005 21445 ft 363 kts 171°
2026-05-05 08:37 47.72310 18.51556 20989 ft 355 kts 173°
2026-05-05 08:38 47.69862 18.52018 20458 ft 358 kts 174°
2026-05-05 08:38 47.67392 18.52470 19951 ft 357 kts 174°
2026-05-05 08:38 47.64959 18.52927 19456 ft 354 kts 173°
2026-05-05 08:38 47.62558 18.53499 18969 ft 351 kts 168°
2026-05-05 08:39 47.60251 18.54708 18480 ft 350 kts 154°
2026-05-05 08:39 47.58228 18.56657 17994 ft 349 kts 142°
2026-05-05 08:39 47.56457 18.59081 17497 ft 347 kts 136°
2026-05-05 08:39 47.54819 18.61664 17001 ft 345 kts 134°
2026-05-05 08:40 47.53239 18.64287 16514 ft 342 kts 133°
2026-05-05 08:40 47.51670 18.66930 16024 ft 339 kts 134°
2026-05-05 08:40 47.50133 18.69507 15545 ft 336 kts 134°
2026-05-05 08:40 47.48598 18.72059 15070 ft 333 kts 135°
2026-05-05 08:41 47.47071 18.74578 14591 ft 329 kts 135°
2026-05-05 08:41 47.45546 18.77081 14120 ft 326 kts 135°
2026-05-05 08:41 47.44049 18.79528 13662 ft 323 kts 135°
2026-05-05 08:41 47.42536 18.81998 13197 ft 320 kts 135°
2026-05-05 08:42 47.41066 18.84395 12737 ft 318 kts 135°
2026-05-05 08:42 47.39578 18.86818 12274 ft 316 kts 135°
2026-05-05 08:42 47.38110 18.89207 11816 ft 314 kts 135°
2026-05-05 08:42 47.36654 18.91576 11340 ft 312 kts 135°
2026-05-05 08:43 47.35221 18.93912 10897 ft 310 kts 135°
2026-05-05 08:43 47.33851 18.96366 10495 ft 308 kts 127°
2026-05-05 08:43 47.32955 18.99174 10319 ft 304 kts 106°
2026-05-05 08:43 47.32921 19.02222 10087 ft 303 kts 81°
2026-05-05 08:44 47.33719 19.05087 9870 ft 301 kts 60°
2026-05-05 08:44 47.35022 19.07524 9432 ft 305 kts 48°
2026-05-05 08:44 47.36687 19.09438 9034 ft 306 kts 25°
2026-05-05 08:44 47.38726 19.10087 8773 ft 299 kts 356°
2026-05-05 08:45 47.40691 19.09455 8549 ft 289 kts 335°
2026-05-05 08:45 47.42395 19.07982 8175 ft 284 kts 316°
2026-05-05 08:45 47.43763 19.05941 7849 ft 279 kts 307°
2026-05-05 08:45 47.45027 19.03767 7497 ft 272 kts 306°
2026-05-05 08:46 47.46234 19.01684 7195 ft 263 kts 307°
2026-05-05 08:46 47.47418 18.99692 6871 ft 263 kts 307°
2026-05-05 08:46 47.48644 18.97672 6555 ft 262 kts 308°
2026-05-05 08:46 47.49865 18.95682 6245 ft 261 kts 308°
2026-05-05 08:47 47.51073 18.93717 5957 ft 258 kts 308°
2026-05-05 08:47 47.52356 18.91906 5836 ft 252 kts 320°
2026-05-05 08:47 47.53906 18.90866 5757 ft 247 kts 351°
2026-05-05 08:47 47.55621 18.91120 5539 ft 252 kts 21°
2026-05-05 08:48 47.57090 18.92449 5281 ft 248 kts 43°
2026-05-05 08:48 47.58288 18.94233 5101 ft 239 kts 55°
2026-05-05 08:48 47.58966 18.96346 4892 ft 226 kts 86°
2026-05-05 08:48 47.58832 18.98549 4625 ft 208 kts 114°
2026-05-05 08:49 47.58200 19.00393 4263 ft 196 kts 129°
2026-05-05 08:49 47.57369 19.01882 3977 ft 184 kts 136°
2026-05-05 08:49 47.56515 19.03228 3762 ft 174 kts 137°
2026-05-05 08:49 47.55709 19.04525 3645 ft 171 kts 136°
2026-05-05 08:50 47.54895 19.05850 3342 ft 173 kts 136°
2026-05-05 08:50 47.54098 19.07146 3108 ft 170 kts 136°
2026-05-05 08:50 47.53291 19.08456 2872 ft 173 kts 136°
2026-05-05 08:50 47.52489 19.09758 2645 ft 172 kts 135°
2026-05-05 08:51 47.51703 19.11035 2437 ft 159 kts 136°
2026-05-05 08:51 47.50962 19.12236 2210 ft 159 kts 136°
2026-05-05 08:51 47.50248 19.13392 1979 ft 148 kts 136°
2026-05-05 08:51 47.49567 19.14494 1805 ft 142 kts 136°
2026-05-05 08:52 47.48884 19.15592 1625 ft 147 kts 137°
2026-05-05 08:52 47.48197 19.16712 1412 ft 148 kts 136°
2026-05-05 08:52 47.47510 19.17824 1233 ft 148 kts 135°
2026-05-05 08:52 47.46824 19.18930 1016 ft 148 kts 136°
2026-05-05 08:53 47.46130 19.20055 845 ft 147 kts 135°
2026-05-05 08:53 47.45450 19.21144 657 ft 142 kts 135°
2026-05-05 08:53 47.44768 19.22255 503 ft 145 kts 134°
2026-05-05 08:53 47.44134 19.23258 445 ft 109 kts 132°
2026-05-05 08:54 47.43792 19.23824 440 ft 47 kts 128°
2026-05-05 08:54 47.43698 19.24102 439 ft 16 kts 106°
2026-05-05 08:54 47.43664 19.24302 440 ft 22 kts 106°
2026-05-05 08:54 47.43600 19.24517 443 ft 22 kts 120°
2026-05-05 08:55 47.43505 19.24686 446 ft 21 kts 132°
2026-05-05 08:55 47.43406 19.24845 449 ft 20 kts 132°
2026-05-05 08:55 47.43312 19.24998 453 ft 20 kts 131°
2026-05-05 08:55 47.43236 19.25152 455 ft 18 kts 102°
2026-05-05 08:56 47.43282 19.25303 460 ft 16 kts 44°
2026-05-05 08:56 47.43372 19.25425 464 ft 18 kts 42°
2026-05-05 08:56 47.43471 19.25556 469 ft 17 kts 42°
2026-05-05 08:56 47.43539 19.25678 472 ft 14 kts 91°
2026-05-05 08:57 47.43493 19.25795 472 ft 12 kts 117°
2026-05-05 08:57 47.43443 19.25897 473 ft 11 kts 133°
2026-05-05 08:57 47.43380 19.25871 471 ft 11 kts 221°
2026-05-05 08:57 47.43361 19.25846 471 ft 0 kts 221°